This is the latest recevied weather packets stored in our database for station/object WW4HG. If no packets are shown the sender has not sent any weather packets the latest 10 day(s).
| Time | Temp. | Humidity | Pressure | Rain* | Wind** | Luminosity | Snow |
|---|---|---|---|---|---|---|---|
| 1777395800 | 19.44° C | 55% | 1024.1 hPa | 0 mm | - | 49 W/m² | - |
| 1777395495 | 18.89° C | 54% | 1024.5 hPa | 0 mm | - | 54 W/m² | - |
| 1777395192 | 18.89° C | 53% | 1024.8 hPa | 0 mm | - | 105 W/m² | - |
| 1777394890 | 18.89° C | 53% | 1025.5 hPa | 0 mm | - | 142 W/m² | - |
| 1777394585 | 18.89° C | 54% | 1025.5 hPa | 0 mm | - | 166 W/m² | - |
| 1777394282 | 18.89° C | 54% | 1025.5 hPa | 0 mm | - | 142 W/m² | - |
| 1777393978 | 18.89° C | 54% | 1025.8 hPa | 0 mm | - | 281 W/m² | - |
| 1777393677 | 18.33° C | 55% | 1026.1 hPa | 0 mm | - | 282 W/m² | - |
| 1777393373 | 18.33° C | 55% | 1026.1 hPa | 0 mm | - | 175 W/m² | - |
| 1777393069 | 18.33° C | 55% | 1026.1 hPa | 0 mm | - | 236 W/m² | - |
| 1777392759 | 18.33° C | 55% | 1026.5 hPa | 0 mm | - | 185 W/m² | - |
| 1777392456 | 18.33° C | 56% | 1026.5 hPa | 0 mm | - | 193 W/m² | - |
| 1777392152 | 17.78° C | 56% | 1026.5 hPa | 0 mm | - | 263 W/m² | - |
| 1777391847 | 17.78° C | 57% | 1026.5 hPa | 0 mm | - | 318 W/m² | - |
| 1777391542 | 17.78° C | 56% | 1026.5 hPa | 0 mm | - | 301 W/m² | - |
| 1777391239 | 17.78° C | 57% | 1026.5 hPa | 0 mm | - | 326 W/m² | - |
| 1777390936 | 17.78° C | 58% | 1026.5 hPa | 0 mm | - | 243 W/m² | - |
| 1777390631 | 17.78° C | 58% | 1026.8 hPa | 0 mm | - | 172 W/m² | - |
| 1777390329 | 17.78° C | 59% | 1026.5 hPa | 0 mm | - | 217 W/m² | - |
| 1777390024 | 17.78° C | 58% | 1026.8 hPa | 0 mm | - | 224 W/m² | - |
| 1777389721 | 17.78° C | 58% | 1026.8 hPa | 0 mm | - | 274 W/m² | - |
| 1777389417 | 18.33° C | 59% | 1026.8 hPa | 0 mm | - | 168 W/m² | - |
| 1777389115 | 18.33° C | 59% | 1026.8 hPa | 0 mm | - | 165 W/m² | - |
| 1777388813 | 18.33° C | 58% | 1026.8 hPa | 0 mm | - | 156 W/m² | - |
| 1777388509 | 18.89° C | 57% | 1026.1 hPa | 0 mm | - | 142 W/m² | - |
* Rain latest hour (hover to see other rain measurements)
** Current wind speed in m/s (hover to see current wind gust speed)